Theta_e
288 290 290 288 288 289 286 287 283 286 287 290 294 296 298 300 301 301 301 301 305 312 322 326 331 334 336 336 338 339 336 337 336 336 336 336 335 333 331 327 327 328 329 329
285 290 290 288 289 289 290 290 289 290 289 296 297 298 297 299 299 299 301 303 309 322 324 328 328 333 335 336 336 338 336 335 336 334 333 331 328 330 328 327 327 328 327 326
279 289 288 281 288 290 291 292 290 286 291 297 297 297 296 297 299 299 301 303 309 323 325 324 326 332 332 335 336 335 334 334 334 332 330 330 326 327 327 327 327 329 328 325
281 284 275 287 295 294 291 292 294 293 295 298 299 302 304 303 303 303 303 313 319 323 324 326 328 331 333 334 333 332 330 329 327 329 326 325 327 326 327 327 327 329 328 324
278 277 285 289 291 290 288 287 295 293 295 297 298 300 302 306 307 309 311 314 316 324 320 317 323 330 328 327 327 326 325 326 326 326 325 327 326 326 327 326 323 324 325 321
282 277 272 287 293 296 293 283 295 293 292 293 295 289 296 303 305 309 312 316 319 323 325 323 327 327 325 323 323 323 325 327 327 329 327 327 327 328 327 324 325 327 326 322
283 280 284 291 295 295 280 285 293 293 293 293 291 294 298 302 304 310 311 316 322 323 323 329 325 325 322 321 320 326 327 327 326 326 327 327 328 327 324 324 325 325 322 320
285 281 276 295 293 287 292 295 295 295 295 295 297 297 299 301 305 309 313 318 322 321 324 327 324 324 321 322 325 326 326 326 326 327 328 328 327 325 325 324 324 323 322 323
286 285 295 296 295 298 297 296 296 296 297 299 300 301 301 302 307 310 315 321 324 324 326 328 325 325 323 325 325 324 325 325 325 325 326 326 322 325 322 324 324 321 321 320
288 292 294 297 298 297 299 297 298 299 300 302 301 304 306 307 308 311 316 321 324 326 323 324 326 325 326 327 327 325 324 326 325 327 326 324 325 324 322 323 323 323 320 318
291 293 295 297 296 298 299 299 298 300 302 301 302 302 304 305 308 313 317 322 324 325 326 324 326 325 326 327 326 325 325 325 324 325 319 315 312 314 321 317 319 325 321 320
287 294 294 293 297 300 298 297 299 300 300 303 303 303 306 307 311 315 318 323 324 326 324 326 326 327 326 327 327 325 323 324 326 326 322 318 316 312 296 296 296 301 309 317
294 298 297 296 298 300 298 298 300 300 301 300 302 304 308 312 316 318 323 322 319 323 325 325 325 325 326 327 326 323 322 321 323 324 323 320 318 317 313 306 297 295 297 301
297 296 294 295 294 299 299 299 301 300 301 300 301 307 309 311 315 317 317 318 319 320 321 324 326 325 326 327 326 324 323 313 324 324 325 323 320 319 320 319 316 311 298 298
296 297 296 297 299 298 298 299 297 297 299 298 302 304 305 308 309 310 312 314 316 319 321 326 326 326 326 327 326 324 323 323 325 326 324 322 323 320 321 319 313 310 309 302
297 296 296 296 298 297 296 297 295 296 297 297 301 302 302 303 304 307 310 309 308 308 313 320 321 327 326 323 323 321 322 312 318 322 322 322 323 323 320 317 315 317 316 311
293 292 294 294 297 296 295 297 296 296 296 297 298 300 301 301 301 302 304 308 305 304 307 309 311 325 323 320 322 320 325 324 314 323 321 324 325 323 322 321 319 317 315 313
296 295 296 295 297 296 295 296 296 296 296 297 296 297 299 298 297 299 300 301 305 304 302 304 306 318 321 315 317 321 322 323 321 324 324 322 322 324 323 322 322 318 317 310
297 296 297 298 298 297 296 296 295 296 296 297 295 293 295 297 298 298 298 297 297 297 297 299 298 308 313 307 317 322 322 321 324 324 322 315 321 323 323 322 322 320 318 315
297 297 298 298 299 297 296 297 295 295 295 295 295 293 292 293 295 296 298 294 295 296 297 299 302 306 308 309 308 320 324 324 324 324 322 322 321 320 318 313 321 321 321 323
297 298 298 298 297 299 297 296 295 293 293 294 293 293 293 294 294 294 294 292 293 295 296 297 298 303 305 306 309 311 312 319 320 317 317 316 315 315 314 317 321 320 317 313
298 297 298 298 298 297 298 297 296 295 294 293 293 293 292 292 295 294 295 293 294 291 295 296 296 290 297 299 305 304 306 305 308 311 308 306 306 305 303 303 304 303 303 302
299 299 299 299 297 297 297 297 296 296 294 293 293 293 293 293 294 292 291 293 294 292 294 293 289 289 292 301 302 301 300 300 300 300 301 301 299 298 297 296 295 295 295 295
301 300 299 300 300 299 295 296 296 297 296 296 296 296 295 294 294 296 295 292 291 292 292 291 290 289 292 298 299 298 298 297 296 297 298 295 297 297 296 295 294 293 293 292
303 301 300 300 299 297 298 297 296 296 297 296 296 296 297 297 295 296 297 295 291 295 296 290 289 290 294 294 294 295 296 296 295 295 295 294 293 292 292 292 291 291 291 290
303 302 299 299 298 297 297 297 296 296 295 295 295 295 296 297 297 297 296 294 296 294 295 296 296 295 295 294 294 294 293 293 293 293 293 293 293 293 292 292 291 291 290 290
305 300 299 297 298 298 297 296 296 295 295 295 294 296 297 296 295 296 293 296 296 296 296 296 296 294 295 295 294 294 294 293 292 293 292 292 291 291 291 290 290 290 290 289
Wind_Speed
18 20 21 19 20 18 17 18 13 22 20 20 9 4 4 13 11 17 29 28 22 25 15 8 11 15 15 13 14 15 15 15 13 12 12 11 10 9 8 8 7 7 8 7
17 19 18 20 14 17 18 17 10 12 8 19 9 8 9 18 17 18 25 27 16 7 6 3 11 5 17 15 15 16 16 13 12 12 11 9 9 10 7 7 7 9 9 9
6 8 12 9 3 6 8 9 6 5 7 12 11 9 12 19 21 23 17 14 14 6 1 16 15 18 15 16 15 16 15 14 12 11 11 11 8 7 9 8 8 10 10 10
6 6 2 1 15 9 11 9 10 8 9 12 16 18 19 13 9 12 11 8 10 9 11 5 8 15 16 17 16 16 14 13 11 12 8 8 8 9 7 7 7 9 9 8
3 3 12 7 8 7 9 14 5 10 15 18 20 19 16 15 18 13 9 8 8 9 15 9 8 11 17 17 16 16 13 12 12 11 10 9 9 9 8 9 7 6 7 7
3 4 4 4 7 10 8 6 11 13 12 16 16 9 12 19 22 21 16 8 9 8 3 18 13 16 15 15 14 13 16 14 13 13 11 10 9 8 5 6 6 7 7 7
6 6 6 0 10 10 1 4 15 15 17 17 12 11 19 24 25 18 15 16 10 10 4 13 10 16 13 12 11 17 14 13 10 11 12 11 8 8 6 6 8 9 8 5
3 4 6 5 8 2 5 14 14 13 18 18 19 21 20 23 20 17 20 21 10 12 5 11 9 14 11 18 16 16 14 13 12 11 9 9 10 5 7 9 10 9 8 6
4 6 3 3 6 6 13 13 8 14 17 19 21 13 16 17 14 15 18 18 6 10 6 7 7 13 19 15 14 12 15 15 11 10 10 8 8 7 6 9 8 7 6 6
3 6 7 5 5 8 9 10 12 14 16 17 16 15 14 13 13 13 14 17 9 6 11 13 11 15 14 12 14 16 13 12 10 11 8 5 5 5 5 6 7 7 7 5
6 9 5 5 7 9 9 7 15 13 14 14 14 14 13 14 13 12 12 12 7 9 13 11 15 13 12 11 14 13 13 12 10 9 9 8 7 4 3 3 3 9 7 7
3 4 4 6 8 5 5 9 12 13 14 11 13 14 14 13 13 12 13 7 9 10 6 17 15 13 11 11 14 14 10 9 9 9 7 7 7 6 13 8 1 7 13 10
2 4 4 11 9 7 3 10 12 11 11 11 13 11 13 13 9 9 4 7 9 8 9 15 13 14 10 15 14 13 10 7 7 8 8 8 7 7 9 7 19 17 8 16
7 2 4 11 10 5 7 9 12 9 8 9 11 11 10 9 12 12 11 6 10 12 13 12 14 12 14 14 13 11 9 12 8 5 9 8 7 7 7 8 8 5 12 7
6 3 5 13 4 7 7 7 9 8 9 10 10 9 10 13 15 15 14 13 10 13 9 15 15 10 9 12 11 10 8 7 7 7 7 9 9 8 8 9 8 7 6 8
6 5 9 10 9 8 8 9 10 10 11 11 10 11 11 10 12 15 13 12 9 10 13 12 13 8 10 4 7 7 7 14 10 5 6 6 7 9 9 9 9 8 7 5
6 8 8 11 8 9 9 8 9 10 10 11 12 11 9 5 13 16 13 11 11 14 14 14 11 12 12 7 3 7 10 11 12 7 5 6 9 9 10 9 9 8 7 7
6 3 8 7 9 10 8 9 10 10 10 10 11 13 12 13 13 11 10 10 5 12 14 12 10 2 3 5 5 4 5 10 6 8 8 5 6 7 10 10 10 10 8 6
7 7 7 9 10 9 7 8 8 9 10 9 10 12 12 12 11 11 10 11 12 10 11 13 17 9 9 10 7 5 5 6 7 6 5 6 5 5 7 7 10 8 8 6
8 8 8 11 11 8 6 7 7 8 9 8 10 11 10 10 8 13 9 9 10 6 7 11 11 11 10 10 13 8 12 10 13 11 7 6 6 8 6 11 12 11 8 7
7 10 9 10 10 9 8 7 8 9 9 9 11 10 10 12 13 13 8 7 12 11 11 14 13 8 7 9 13 12 11 10 13 12 11 8 13 12 11 12 14 12 11 11
7 7 7 7 9 8 7 7 8 9 9 10 12 10 10 10 6 10 9 6 6 12 6 9 8 12 7 15 12 12 13 14 12 13 11 7 9 14 11 11 13 12 11 11
6 6 7 6 7 9 7 7 8 9 11 11 11 11 9 5 5 5 9 8 6 10 10 10 9 11 8 12 11 13 14 15 13 13 11 9 12 13 11 11 11 11 11 11
6 7 6 5 5 7 8 7 9 8 8 9 8 8 8 6 5 4 2 9 13 14 12 8 9 11 11 11 10 11 13 13 13 12 12 13 12 12 11 12 12 11 11 12
7 6 6 6 5 4 9 8 7 7 7 6 6 4 0 1 3 4 6 7 11 12 10 12 12 14 13 12 11 11 10 12 13 12 12 12 12 12 11 11 12 11 11 11
2 4 4 5 4 4 4 5 5 5 4 4 4 3 3 3 5 7 8 9 12 12 12 11 11 11 12 12 12 12 10 13 14 14 15 14 14 13 13 12 13 12 11 11
6 4 2 3 3 5 5 4 5 6 5 4 4 3 4 4 5 6 9 9 10 11 10 11 12 12 12 14 13 12 12 14 14 14 15 14 14 13 14 12 12 11 11 10
Wind_Direction
257 270 270 267 266 272 253 253 261 272 267 271 183 189 243 269 250 273 281 283 282 231 241 222 196 162 128 131 119 124 124 120 121 115 125 127 126 119 120 117 123 122 122 98
278 269 267 275 297 285 291 291 13 356 4 351 194 191 213 256 272 260 259 271 287 265 273 249 146 157 126 129 130 121 124 128 126 127 126 119 120 115 121 113 122 118 106 110
261 321 327 305 354 326 2 352 2 355 278 320 327 215 235 251 262 264 285 303 326 293 321 110 166 195 143 134 134 125 123 128 126 123 126 137 127 113 113 124 111 111 109 105
278 311 255 205 43 20 348 2 330 284 318 335 324 326 311 321 339 321 293 346 337 339 64 277 196 142 141 135 129 124 129 127 119 120 122 113 107 119 112 119 117 111 106 112
286 290 274 309 30 22 7 309 20 358 342 333 331 323 304 3 340 330 336 319 313 355 124 226 259 148 122 121 123 128 124 119 123 121 117 112 122 124 123 109 106 108 121 118
327 284 265 55 3 1 294 268 26 351 326 319 328 316 284 324 323 315 320 303 321 348 106 185 222 129 123 128 140 126 132 134 131 132 125 124 131 126 120 119 122 111 107 103
240 262 272 206 346 329 85 333 331 335 317 305 293 269 289 300 301 315 308 313 337 349 343 189 187 139 139 131 114 134 132 127 127 127 131 140 132 130 131 122 104 105 109 105
225 244 278 194 343 253 318 300 293 306 295 293 284 279 280 285 297 319 317 319 345 334 270 218 169 143 112 114 128 131 134 137 134 128 131 139 136 126 123 116 117 119 124 111
222 233 236 325 262 268 290 292 301 299 296 295 296 273 268 280 301 315 312 307 10 313 230 262 134 111 119 121 121 105 126 132 131 128 136 138 126 124 111 123 134 139 134 133
210 250 244 291 258 279 295 290 308 297 296 296 305 320 319 325 313 311 308 313 325 318 191 248 105 113 120 118 111 111 114 112 128 127 111 88 109 125 131 148 145 146 142 144
238 259 308 248 287 301 308 305 312 306 299 303 315 312 305 300 301 302 309 301 272 204 219 133 122 124 118 110 110 114 113 114 115 107 103 92 69 30 93 97 151 156 152 150
253 155 226 300 325 335 331 331 313 311 316 320 320 311 304 299 296 291 283 250 260 274 183 138 132 127 120 112 117 121 122 135 134 129 118 117 120 97 49 38 8 187 134 137
29 24 340 333 325 342 305 324 319 316 314 325 317 309 308 301 305 294 304 77 9 27 157 128 133 127 121 127 127 138 150 137 132 123 131 135 130 119 107 66 69 53 91 126
84 2 322 349 328 48 17 322 315 320 329 336 329 337 332 347 29 38 40 30 314 307 331 146 141 140 142 137 144 151 155 149 143 138 143 146 138 128 119 116 107 75 34 74
118 55 320 311 60 49 9 338 340 348 346 348 342 348 5 27 36 39 31 359 333 310 277 153 142 150 147 146 158 135 153 154 148 154 144 144 142 138 126 111 104 110 109 67
95 25 355 339 35 45 14 352 358 355 359 354 359 10 19 41 34 40 20 12 18 27 15 54 48 43 39 8 115 112 130 139 143 131 130 121 125 125 121 122 128 131 125 120
51 10 342 4 27 41 23 4 6 1 4 4 4 2 356 45 63 34 10 7 3 29 22 29 14 39 26 352 139 132 145 142 138 132 133 135 137 137 133 136 136 136 137 148
103 15 53 8 45 32 13 22 13 10 14 12 20 9 5 24 47 45 21 350 12 45 17 358 7 58 34 5 341 111 146 138 137 152 146 135 141 144 145 143 143 139 144 158
85 45 49 45 74 51 15 17 18 9 16 24 42 33 18 17 26 37 20 19 24 32 359 350 334 10 15 14 86 50 104 161 142 137 111 117 110 103 104 108 122 120 130 121
91 69 40 58 78 61 46 25 15 18 23 27 48 48 32 44 23 39 22 30 22 23 359 355 347 14 354 40 80 53 69 78 84 69 68 71 86 76 87 108 118 110 112 103
95 74 48 61 59 74 67 43 30 27 26 37 44 36 32 27 37 24 7 26 8 4 16 20 17 6 356 40 60 65 63 79 84 80 51 50 90 77 71 80 92 100 100 87
93 91 79 65 79 70 84 73 51 47 36 49 60 50 45 36 29 44 20 39 12 6 29 47 15 355 357 63 65 67 70 63 59 75 72 41 72 88 73 73 86 85 81 78
83 93 96 78 98 102 88 86 69 63 58 40 40 31 35 22 34 34 46 32 53 44 49 49 5 5 343 70 72 73 71 73 72 73 78 74 73 73 75 75 74 76 77 78
123 111 116 123 107 115 107 97 97 81 81 82 52 24 21 2 19 23 109 54 57 57 59 47 44 39 47 62 66 78 85 83 79 77 80 76 75 79 81 80 82 83 85 85
119 139 149 157 139 118 126 127 113 105 98 88 110 116 197 242 54 24 50 56 61 64 64 50 56 64 66 63 65 69 82 96 97 91 84 81 79 78 76 79 78 78 77 74
112 116 92 93 93 126 87 96 109 115 98 113 109 88 54 27 61 71 65 59 65 62 62 58 59 67 73 75 78 81 82 87 91 87 91 88 86 85 83 82 83 80 77 78
11 349 114 89 58 99 115 111 111 117 108 102 99 115 101 83 66 72 71 67 72 74 74 71 68 66 76 80 75 77 78 82 86 91 85 87 84 81 81 75 75 77 75 72